Regional Weather Roundup
Issued by NWS State College, PA

Home | Current Version | Previous Version | Graphics & Text | Print | Product List | Glossary On
Versions: 1 2 3 4 5 6 7 8 9 10 11 12 13 14 15 16 17 18 19 20 21 22 23 24 25 26 27 28 29 30 31 32 33 34 35 36 37 38 39 40 41 42 43 44 45 46 47 48 49 50
000
ASUS41 KCTP 011603
RWRCTP

REGIONAL WEATHER ROUNDUP
NATIONAL WEATHER SERVICE STATE COLLEGE PA
1200 PM EDT FRI AUG 01 2014

Note: "fair" indicates few or no clouds below 12,000 feet with no
significant weather and/or obstructions to visibility.

* = STATION THAT DOES NOT REPORT PRECIPITATION /E.G. RAIN...SNOW...ETC/
    THUNDER OR FOG.

PAZ002>004-007>009-013>016-020>023-029>032-011700-
WESTERN PENNSYLVANIA

CITY           SKY/WX    TMP DP  RH WIND       PRES   REMARKS
ERIE           SUNNY     78  60  53 W6        30.14R
MEADVILLE      SUNNY     76  59  55 CALM      30.18R
FRANKLIN*      PTSUNNY   75  61  60 S7        30.19S
NEW CASTLE     FAIR      78  64  61 CALM      30.17S
BEAVER COUNTY  SUNNY     77  59  53 SE5       30.17S
BUTLER*        MOSUNNY   77  61  57 CALM      30.19S
PITTSBURGH INT PTSUNNY   76  63  64 S6        30.17S
PITTSBURGH     MOSUNNY   76  59  55 VRB3      30.16F
INDIANA*       SUNNY     77  59  53 CALM      30.22F
LATROBE        NOT AVBL
WASHINGTON CO* MOSUNNY   75  63  64 E6        30.18S
$$

PAZ004>006-010>012-017>019-024>028-033>037-041-042-045-046-049>053-011700-
CENTRAL PENNSYLVANIA

CITY           SKY/WX    TMP DP  RH WIND       PRES   REMARKS
BRADFORD       MOSUNNY   73  56  54 VRB5      30.21R
DUBOIS         MOSUNNY   75  58  55 S5        30.20S
CLEARFIELD     MOSUNNY   75  61  61 VRB3      30.21S
JOHNSTOWN      PTSUNNY   72  59  63 SE5       30.22S
ALTOONA        PTSUNNY   74  63  68 S3        30.21S
STATE COLLEGE  SUNNY     68  64  88 CALM      30.21S FOG
WILLIAMSPORT   CLOUDY    71  63  75 SE3       30.18F HAZE
SELINSGROVE    CLOUDY    75  66  73 CALM      30.19F HAZE
FT INDIANTOWN  PTSUNNY   78  70  78 SW1       30.19S
CAPITAL CITY   PTSUNNY   78  68  71 NE5       30.18S
HARRISBURG     PTSUNNY   81  69  67 VRB3      30.17F
YORK           PTSUNNY   81  68  64 VRB5      30.18S
$$

PAZ038>040-043-044-047-048-054-055-060>062-067>071-011700-
EASTERN PENNSYLVANIA

CITY           SKY/WX    TMP DP  RH WIND       PRES   REMARKS
SCRANTON       PTSUNNY   81  62  52 VRB3      30.20S
MOUNT POCONO   LGT RAIN  75  59  57 W7        30.25R
ALLENTOWN      CLOUDY    78  68  71 VRB5      30.20S
QUAKERTOWN*    CLOUDY    77  68  73 CALM      30.22S
READING        CLOUDY    82  69  64 S6        30.18S
LANCASTER      PTSUNNY   79  68  69 S9        30.19S
COATESVILLE    CLOUDY    77  72  83 SW3       30.22S
POTTSTOWN      CLOUDY    77  69  76 CALM      30.22R
BLUE BELL      CLOUDY    81  70  69 S3        30.19S
DOYLESTOWN     PTSUNNY   78  68  71 VRB6      30.20R
WILLOW GROVE   NOT AVBL
NORTH PHILA    PTSUNNY   82  67  60 S3        30.21R
PHILADELPHIA   CLOUDY    80  69  69 S5        30.20R
$$



USA.gov is the U.S. government's official web portal to all federal, state and local government web resources and services.